Simultaneous Nadir Overpasses (SNOs) Predictions

Prediction of SNOs near US between AQUA and NPP Satellite Orbit:

Table of predicted SNOs near US for the next 10.0 days since TLE Epoch: 1/26/2013
Index Date (AQUA) Time (AQUA) AQUA Lat,Lon Date (NPP) Time (NPP) NPP Lat,Lon Distance(km) Time Diff (sec)
1 01/26/2013 18:17:01 49.98, -80.24 01/26/2013 18:08:41 50.36, -81.99 131.90 500
2 01/26/2013 19:55:54 49.98,-104.96 01/26/2013 19:49:58 49.62,-107.03 154.09 356
3 01/26/2013 21:31:01 36.51,-124.99 01/26/2013 21:27:34 36.06,-127.47 227.57 207
4 02/01/2013 06:32:03 40.38, -67.12 02/01/2013 06:30:21 40.74, -69.20 180.47 102
5 02/01/2013 08:08:16 49.91, -88.36 02/01/2013 08:09:04 50.39, -90.80 181.80 48
6 02/01/2013 09:47:09 49.92,-113.08 02/01/2013 09:50:32 50.51,-116.12 226.22 203
7 02/03/2013 19:06:27 49.94, -92.57 02/03/2013 18:59:24 49.60, -94.38 134.94 423
8 02/03/2013 20:45:21 49.99,-117.32 02/03/2013 20:40:54 49.60,-119.75 180.15 267




NCC Satellite Simultaneous Nadir Overpasses (SNOs) Prediction Service
